Location: Table Mountain
(47.2500°N, 120.5778°W)
Time: 08:02:09
(UTC-07:00)

ISS - Pass Details

Date: 13 October 2017
Orbit: 401 x 408 km, 51.6° (Epoch: 18 October)

Event Time Altitude Azimuth Distance (km) Brightness Sun altitude
Rises 18:46:32 0° 294° (WNW) 2,320 1.2 -5.7°
Reaches altitude 10° 18:48:37 10° 293° (WNW) 1,459 0.1 -6.0°
Maximum altitude 18:51:53 76° 209° (SSW) 420 -3.7 -6.6°
Drops below altitude 10° 18:55:08 10° 122° (ESE) 1,456 -1.5 -7.1°
Enters shadow 18:56:03 - 121° (ESE) 1,829 -1.0 -7.3°
